When you browse on this site, cookies collect data to enhance your experience and personalize the content and advertising you see.
Visit our Privacy Policy to learn more. By continuing to use the site, you agree to this use of cookies and data.
  • In Hungary
  • List of Countries
  • For 7 days
  • Water Temperature
  • Weather Map
  • News
  • Weather Widgets
  • user-avatar
    Login

    Hourly Weather Kopylovo

    Today, 19 January, Sunday

    Time Temperature Precipitation Wind Pressure Humidity
    00:00 -22°C° 0 mm 3 mps 755 mmHg 84%
    01:00 -22°C° 0 mm 3 mps 754 mmHg 84%
    02:00 -23°C° 0 mm 4 mps 752 mmHg 84%
    03:00 -23°C° 0 mm 4 mps 751 mmHg 84%
    04:00 -22°C° 0 mm 4 mps 750 mmHg 85%
    05:00 -22°C° 0 mm 4 mps 748 mmHg 87%
    06:00 -22°C° 0 mm 4 mps 747 mmHg 89%
    07:00 -20°C° 0.1 mm 5 mps 746 mmHg 90%
    08:00 -18°C° 0.1 mm 5 mps 744 mmHg 92%
    09:00 -15°C° 0.1 mm 5 mps 743 mmHg 93%
    10:00 -13°C° 0.6 mm 5 mps 742 mmHg 93%
    11:00 -12°C° 0.6 mm 5 mps 741 mmHg 94%
    12:00 -10°C° 0.6 mm 5 mps 741 mmHg 94%
    13:00 -11°C° 0.4 mm 5 mps 741 mmHg 93%
    14:00 -12°C° 0.4 mm 5 mps 741 mmHg 91%
    15:00 -13°C° 0.4 mm 5 mps 740 mmHg 90%
    16:00 -15°C° 0.1 mm 5 mps 741 mmHg 90%
    17:00 -16°C° 0.1 mm 4 mps 742 mmHg 90%
    18:00 -18°C° 0.1 mm 4 mps 743 mmHg 91%
    19:00 -19°C° 0 mm 4 mps 744 mmHg 92%
    20:00 -19°C° 0 mm 3 mps 745 mmHg 94%
    21:00 -22°C° 0 mm 3 mps 746 mmHg 96%
    22:00 -22°C° 0 mm 3 mps 746 mmHg 96%
    23:00 -22°C° 0 mm 3 mps 747 mmHg 96%

    Tomorrow, 20 January, Monday

    Time Temperature Precipitation Wind Pressure Humidity
    00:00 -22°C° 0 mm 3 mps 747 mmHg 97%
    01:00 -20°C° 0.1 mm 2 mps 748 mmHg 97%
    02:00 -20°C° 0.1 mm 2 mps 748 mmHg 96%
    03:00 -20°C° 0.1 mm 2 mps 749 mmHg 96%
    04:00 -21°C° 0 mm 2 mps 749 mmHg 97%
    05:00 -24°C° 0 mm 3 mps 750 mmHg 97%
    06:00 -24°C° 0 mm 3 mps 751 mmHg 97%
    07:00 -25°C° 0 mm 2 mps 751 mmHg 98%
    08:00 -26°C° 0 mm 2 mps 751 mmHg 98%
    09:00 -28°C° 0 mm 2 mps 751 mmHg 99%
    10:00 -27°C° 0 mm 2 mps 751 mmHg 98%
    11:00 -29°C° 0 mm 3 mps 752 mmHg 97%
    12:00 -27°C° 0 mm 3 mps 752 mmHg 95%
    13:00 -27°C° 0 mm 3 mps 752 mmHg 94%
    14:00 -26°C° 0 mm 3 mps 752 mmHg 94%
    15:00 -27°C° 0 mm 4 mps 752 mmHg 93%
    16:00 -27°C° 0 mm 4 mps 752 mmHg 93%
    17:00 -27°C° 0 mm 3 mps 752 mmHg 93%
    18:00 -27°C° 0 mm 3 mps 753 mmHg 93%
    19:00 -29°C° 0 mm 4 mps 753 mmHg 93%
    20:00 -29°C° 0 mm 4 mps 753 mmHg 94%
    21:00 -29°C° 0 mm 4 mps 752 mmHg 94%
    22:00 -30°C° 0 mm 4 mps 752 mmHg 93%
    23:00 -30°C° 0 mm 4 mps 752 mmHg 92%

    Day after tomorrow, 21 January, Tuesday

    Time Temperature Precipitation Wind Pressure Humidity
    00:00 -31°C° 0 mm 4 mps 752 mmHg 91%
    01:00 -31°C° 0 mm 4 mps 751 mmHg 91%
    02:00 -31°C° 0 mm 4 mps 751 mmHg 91%
    03:00 -32°C° 0 mm 4 mps 750 mmHg 91%
    04:00 -32°C° 0 mm 4 mps 750 mmHg 91%
    05:00 -32°C° 0 mm 4 mps 750 mmHg 92%
    06:00 -32°C° 0 mm 4 mps 750 mmHg 92%
    07:00 -32°C° 0 mm 4 mps 750 mmHg 92%
    08:00 -32°C° 0 mm 4 mps 750 mmHg 92%
    09:00 -32°C° 0 mm 4 mps 749 mmHg 92%
    10:00 -31°C° 0 mm 4 mps 750 mmHg 93%
    11:00 -30°C° 0 mm 4 mps 750 mmHg 94%
    12:00 -27°C° 0 mm 3 mps 750 mmHg 94%
    13:00 -27°C° 0.1 mm 3 mps 750 mmHg 95%
    14:00 -26°C° 0.1 mm 3 mps 750 mmHg 95%
    15:00 -25°C° 0.1 mm 3 mps 750 mmHg 95%
    16:00 -25°C° 0 mm 2 mps 750 mmHg 96%
    17:00 -26°C° 0 mm 2 mps 750 mmHg 97%
    18:00 -27°C° 0 mm 2 mps 751 mmHg 98%
    19:00 -25°C° 0 mm 1 mps 751 mmHg 99%
    20:00 -27°C° 0 mm 1 mps 752 mmHg 99%
    21:00 -27°C° 0 mm 1 mps 752 mmHg 99%
    22:00 -27°C° 0 mm 1 mps 753 mmHg 99%
    23:00 -28°C° 0 mm 1 mps 753 mmHg 99%

    22 January, Wednesday

    Time Temperature Precipitation Wind Pressure Humidity
    00:00 -28°C° 0 mm 1 mps 753 mmHg 99%
    01:00 -28°C° 0 mm 1 mps 754 mmHg 98%
    02:00 -28°C° 0 mm 1 mps 754 mmHg 98%
    03:00 -28°C° 0 mm 1 mps 754 mmHg 98%
    04:00 -28°C° 0 mm 1 mps 754 mmHg 98%
    05:00 -28°C° 0 mm 1 mps 754 mmHg 97%
    06:00 -27°C° 0 mm 1 mps 754 mmHg 97%
    07:00 -29°C° 0 mm 2 mps 754 mmHg 96%
    08:00 -29°C° 0 mm 2 mps 754 mmHg 95%
    09:00 -28°C° 0 mm 2 mps 753 mmHg 95%
    10:00 -26°C° 0 mm 2 mps 753 mmHg 92%
    11:00 -24°C° 0 mm 2 mps 753 mmHg 89%
    12:00 -22°C° 0 mm 3 mps 752 mmHg 86%
    13:00 -22°C° 0 mm 3 mps 751 mmHg 88%
    14:00 -21°C° 0 mm 3 mps 751 mmHg 90%
    15:00 -19°C° 0 mm 3 mps 750 mmHg 92%
    16:00 -18°C° 0.2 mm 3 mps 750 mmHg 93%
    17:00 -17°C° 0.2 mm 3 mps 749 mmHg 94%
    18:00 -17°C° 0.2 mm 3 mps 749 mmHg 95%
    19:00 -15°C° 0.1 mm 2 mps 749 mmHg 95%
    20:00 -14°C° 0.1 mm 2 mps 749 mmHg 95%
    21:00 -13°C° 0.1 mm 2 mps 748 mmHg 95%
    22:00 -13°C° 0.1 mm 3 mps 748 mmHg 94%
    23:00 -13°C° 0.1 mm 3 mps 748 mmHg 94%

    23 January, Thursday

    Time Temperature Precipitation Wind Pressure Humidity
    00:00 -12°C° 0.1 mm 3 mps 748 mmHg 94%
    01:00 -12°C° 0.1 mm 3 mps 748 mmHg 94%
    02:00 -13°C° 0.1 mm 3 mps 748 mmHg 94%
    03:00 -13°C° 0.1 mm 3 mps 748 mmHg 93%
    04:00 -12°C° 0.2 mm 4 mps 748 mmHg 93%
    05:00 -12°C° 0.2 mm 4 mps 748 mmHg 93%
    06:00 -12°C° 0.2 mm 4 mps 748 mmHg 93%
    07:00 -11°C° 0.2 mm 4 mps 748 mmHg 93%
    08:00 -11°C° 0.2 mm 4 mps 748 mmHg 93%
    09:00 -10°C° 0.2 mm 4 mps 747 mmHg 93%
    10:00 -11°C° 0.2 mm 5 mps 747 mmHg 93%
    11:00 -10°C° 0.2 mm 5 mps 747 mmHg 93%
    12:00 -10°C° 0.2 mm 5 mps 747 mmHg 92%
    13:00 -8°C° 0.2 mm 5 mps 746 mmHg 92%
    14:00 -8°C° 0.2 mm 5 mps 746 mmHg 92%
    15:00 -7°C° 0.2 mm 5 mps 745 mmHg 92%
    16:00 -7°C° 0.3 mm 5 mps 745 mmHg 93%
    17:00 -7°C° 0.3 mm 5 mps 745 mmHg 93%
    18:00 -7°C° 0.3 mm 5 mps 744 mmHg 94%
    19:00 -7°C° 0.3 mm 5 mps 744 mmHg 94%
    20:00 -7°C° 0.3 mm 5 mps 744 mmHg 94%
    21:00 -7°C° 0.3 mm 5 mps 743 mmHg 94%
    22:00 -6°C° 0.4 mm 5 mps 742 mmHg 94%
    23:00 -6°C° 0.4 mm 6 mps 742 mmHg 94%

    24 January, Friday

    Time Temperature Precipitation Wind Pressure Humidity
    00:00 -6°C° 0.4 mm 6 mps 741 mmHg 94%
    01:00 -5°C° 0.6 mm 6 mps 741 mmHg 94%
    02:00 -5°C° 0.6 mm 6 mps 741 mmHg 94%
    03:00 -5°C° 0.6 mm 6 mps 740 mmHg 94%
    04:00 -4°C° 0.4 mm 6 mps 740 mmHg 94%
    05:00 -4°C° 0.4 mm 6 mps 740 mmHg 94%
    06:00 -3°C° 0.4 mm 6 mps 740 mmHg 94%
    07:00 -5°C° 0.1 mm 6 mps 741 mmHg 91%
    08:00 -6°C° 0.1 mm 6 mps 742 mmHg 88%
    09:00 -8°C° 0.1 mm 6 mps 743 mmHg 85%
    10:00 -8°C° 0 mm 6 mps 743 mmHg 83%
    11:00 -8°C° 0 mm 6 mps 744 mmHg 82%
    12:00 -8°C° 0 mm 6 mps 744 mmHg 80%
    13:00 -7°C° 0 mm 5 mps 745 mmHg 81%
    14:00 -7°C° 0 mm 5 mps 745 mmHg 82%
    15:00 -7°C° 0 mm 5 mps 745 mmHg 82%
    16:00 -8°C° 0 mm 4 mps 745 mmHg 84%
    17:00 -9°C° 0 mm 4 mps 745 mmHg 85%
    18:00 -9°C° 0 mm 4 mps 745 mmHg 87%
    19:00 -9°C° 0 mm 4 mps 744 mmHg 87%
    20:00 -9°C° 0 mm 4 mps 744 mmHg 88%
    21:00 -9°C° 0 mm 4 mps 744 mmHg 89%
    22:00 -9°C° 0 mm 4 mps 744 mmHg 90%
    23:00 -9°C° 0 mm 4 mps 744 mmHg 91%
    Show more